#timestamp,LO_Frequency,Hit,StdDev 
1621620015.3,286047002.7,N
1621620035.1,286047002.6,N
1621620055.8,286047003.2,N
1621620075.7,286047003.9,Y
1621620095.5,286046998.4,P
1621620115.4,286046999.6,N
1621620135.2,286046998.6,N
1621620155.0,286046999.9,N
1621620155.9,286046999.9,N
1621620175.8,286046999.9,N
1621620195.6,286047000.5,N
1621620215.4,286047002.7,N
1621620235.3,286047000.2,N
1621620255.1,286046999.8,N
1621620275.9,286047002.8,N
1621620295.7,286047000.4,N
1621620315.5,286047000.3,N
1621620335.4,286047000.3,N
1621620355.2,286047000.4,N
1621620375.0,286047001.2,N
1621620375.9,286047001.2,N
1621620395.8,286046999.6,N
1621620415.6,286046997.2,N
1621620435.5,286046996.2,N
1621620455.3,286046993.7,Y
1621620475.1,286046993.3,P
1621620495.9,286046994.9,N
1621620515.7,286046996.8,N
1621620535.6,286046996.5,N
1621620555.4,286046999.5,N
1621620575.2,286047000.0,N
1621620595.1,286046998.4,N
1621620596.0,286046998.4,N
1621620615.8,286046999.0,N
1621620635.7,286046999.1,N
1621620655.5,286046996.5,N
1621620675.3,286046998.8,N
1621620695.2,286046999.4,N
1621620715.0,286047001.2,N
1621620715.9,286047001.2,N
1621620735.7,286047002.6,N
1621620755.6,286047000.6,N
1621620775.4,286046999.2,N
1621620795.3,286046999.4,N
1621620815.1,286046998.9,N
1621620816.0,286046998.9,N
1621620835.8,286046999.1,N
1621620855.7,286046999.8,N
1621620875.5,286047002.5,N
1621620895.4,286046999.9,N
1621620915.2,286046999.0,N
1621620935.0,286046998.7,N
1621620935.9,286046998.7,N
1621620955.8,286047000.6,N
1621620975.6,286047002.3,N
1621620995.4,286046999.7,N
1621621015.3,286047000.8,N
1621621035.1,286046999.3,N
1621621055.9,286046997.0,N
1621621075.7,286046996.0,N
1621621095.5,286046997.4,N
1621621115.4,286046995.5,N
1621621135.2,286046997.2,N
1621621155.1,286046997.0,N
1621621156.0,286046997.0,N
1621621175.8,286046999.2,N
1621621195.6,286046997.7,N
1621621215.5,286046998.4,N
1621621235.3,286047000.0,N
1621621255.1,286047000.6,N
1621621275.9,286047000.0,N
1621621295.7,286047001.1,N
1621621315.6,286047000.2,N
1621621335.4,286046999.7,N
1621621355.2,286047000.8,N
1621621375.1,286046999.8,N
1621621376.0,286046999.8,N
1621621395.8,286046999.9,N
1621621415.7,286046998.7,N
1621621435.5,286047001.0,N
1621621455.3,286046999.7,N
1621621475.2,286046999.8,N
1621621495.0,286047002.3,N
1621621495.9,286047002.3,N
1621621515.8,286047000.2,N
1621621535.6,286046998.6,N
1621621555.4,286046996.5,N
1621621575.3,286046998.4,N
1621621595.1,286047000.7,N
1621621615.9,286047000.3,N
1621621635.7,286047002.3,N
1621621655.5,286047004.1,N
1621621675.4,286047001.6,N
1621621695.2,286047004.1,N
1621621715.0,286047002.7,N
1621621715.9,286047002.7,N
1621621735.8,286047001.6,N
1621621755.6,286047002.0,N
1621621775.5,286047002.8,N
1621621795.3,286047000.2,N
1621621815.1,286046998.1,N
1621621835.9,286047000.7,N
1621621855.7,286047002.4,N
1621621875.5,286047001.0,N
1621621895.4,286046998.8,N
1621621915.2,286046999.1,N
1621621935.1,286047000.8,N
1621621936.0,286047000.8,N
1621621955.8,286047002.7,N
1621621975.6,286047001.8,N
1621621995.5,286047003.4,N
1621622015.3,286047001.9,N
1621622035.1,286047003.6,N
1621622055.9,286047003.2,N
1621622075.7,286047003.6,N
1621622095.6,286047001.4,N
1621622115.4,286047001.9,N
1621622135.2,286047000.4,N
1621622155.1,286046999.7,N
1621622156.0,286046999.7,N
1621622175.8,286047001.3,N
1621622195.6,286047004.4,N
1621622215.5,286047002.4,N
1621622235.3,286047001.3,N
1621622255.2,286047004.1,N
1621622275.9,286047001.3,N
1621622295.7,286047003.0,N
1621622315.6,286047004.4,N
1621622335.4,286047004.1,N
1621622355.3,286047001.4,N
1621622375.1,286047002.1,N
1621622376.0,286047002.1,N
1621622395.8,286047003.7,N
1621622415.7,286047000.4,N
1621622435.5,286046998.3,N
1621622455.3,286047000.9,N
1621622475.2,286047002.0,N
1621622495.0,286047002.4,N
1621622495.9,286047002.4,N
1621622515.8,286047002.4,N
1621622535.6,286047003.9,N
1621622555.4,286047005.9,Y
1621622575.3,286047000.4,P
1621622595.1,286046999.9,N
1621622615.9,286046999.3,N
1621622635.7,286047001.2,N
1621622655.5,286047002.3,N
1621622675.4,286047002.1,N
1621622695.2,286046999.8,N
1621622715.1,286047002.6,N
1621622716.0,286047002.6,N
1621622735.8,286047004.3,Y
1621622755.6,286046999.8,P
1621622775.5,286047000.3,N
1621622795.3,286047000.0,N
1621622815.2,286046999.9,N
1621622835.9,286046998.7,N
1621622855.7,286047000.7,N
1621622875.6,286046996.5,Y
1621622895.4,286046996.5,P
1621622915.2,286046998.6,N
1621622935.1,286047002.0,N
1621622936.0,286047002.0,N
1621622955.8,286046998.1,N
1621622975.7,286046998.2,N
1621622995.5,286046999.4,N
1621623015.3,286046997.3,N
1621623035.2,286046997.5,N
1621623055.0,286046993.4,Y
1621623055.9,286046993.4,P
1621623075.8,286046993.7,N
1621623095.6,286046991.8,P
1621623115.4,286046992.6,N
1621623135.3,286046992.5,N
1621623155.1,286046994.4,N
1621623175.9,286046994.4,N
1621623195.7,286046994.4,N
1621623215.5,286046993.9,Y
1621623235.4,286047000.2,P
1621623255.2,286046999.8,N
1621623275.0,286047001.2,N
1621623275.9,286047001.2,N
1621623295.8,286046998.4,N
1621623315.6,286046999.0,N
1621623335.5,286047000.8,N
1621623355.3,286047000.9,N
1621623375.1,286047000.9,N
1621623395.9,286047000.7,N
1621623415.7,286046998.5,N
1621623435.6,286046998.1,N
1621623455.4,286047011.9,Y
1621623475.2,286046999.3,P
1621623495.1,286046996.5,P
1621623496.0,286046996.5,N
1621623515.8,286046997.3,N
1621623535.6,286046996.1,N
1621623555.5,286046995.4,Y
1621623575.3,286046995.2,P
1621623595.2,286046997.1,N
